EW3770 Weather Reports


Display with metric or nautical units.
time (UTC)temp
F
wind
direction
speed
MPH
gust
MPH
rain 1hr
in
rain 24hr
in
rain mn
in
humidity
%
barometer
mb
20260505124503 57 360 1.0 3.0 0.00 0.00 0.00 62 1027.4
20260505123603 57 360 1.0 3.0 0.00 0.00 0.00 61 1027.4
20260505122703 57 360 1.0 5.0 0.00 0.00 0.00 60 1027.4
20260505121803 57 360 0.0 3.0 0.00 0.00 0.00 60 1027.4
20260505120903 57 360 0.0 4.0 0.00 0.00 0.00 60 1027.4
20260505120004 57 360 0.0 4.0 0.00 0.00 0.00 61 1027.4
20260505115403 58 360 1.0 6.0 0.00 0.00 0.00 62 1027.4
20260505114503 58 360 1.0 4.0 0.00 0.00 0.00 62 1027.4
20260505113603 58 360 1.0 4.0 0.00 0.00 0.00 63 1027.4
20260505112703 58 360 1.0 4.0 0.00 0.00 0.00 62 1027.4
20260505111803 58 360 2.0 6.0 0.00 0.00 0.00 62 1027.4
20260505110903 58 360 2.0 6.0 0.00 0.00 0.00 62 1027.4
20260505101803 58 360 1.0 8.0 0.00 0.00 0.00 60 1027.4
20260505100903 58 360 1.0 8.0 0.00 0.00 0.00 61 1027.4
20260505100003 58 360 0.0 3.0 0.00 0.00 0.00 60 1027.4
20260505095424 58 360 0.0 1.0 0.00 0.00 0.00 60 1027.4
20260505094503 57 360 1.0 3.0 0.00 0.00 0.00 61 1027.4
20260505093603 58 360 1.0 8.0 0.00 0.00 0.00 61 1027.4
20260505092703 58 360 1.0 10.0 0.00 0.00 0.00 60 1027.4
20260505091803 58 360 1.0 6.0 0.00 0.00 0.00 59 1027.4
20260505090924 58 360 0.0 5.0 0.00 0.00 0.00 58 1027.4
20260505090004 58 360 0.0 2.0 0.00 0.00 0.00 59 1027.4
20260505085403 58 360 0.0 2.0 0.00 0.00 0.00 59 1027.4
20260505084524 58 360 0.0 1.0 0.00 0.00 0.00 59 1027.4
20260505083624 58 360 0.0 3.0 0.00 0.00 0.00 59 1027.4
20260505082703 58 360 0.0 3.0 0.00 0.00 0.00 60 1027.4
20260505081803 58 360 0.0 2.0 0.00 0.00 0.00 60 1027.4
20260505080903 57 360 1.0 5.0 0.00 0.00 0.00 60 1027.4
20260505080003 57 360 1.0 5.0 0.00 0.00 0.00 60 1027.4
20260505075403 57 360 1.0 5.0 0.00 0.00 0.00 59 1027.4
20260505074503 57 360 2.0 5.0 0.00 0.00 0.00 59 1027.4
20260505073603 57 360 2.0 6.0 0.00 0.00 0.00 58 1027.4
20260505072703 57 360 2.0 5.0 0.00 0.00 0.00 59 1027.4
20260505071824 57 360 2.0 8.0 0.00 0.00 0.00 58 1027.4
20260505070903 57 360 3.0 9.0 0.00 0.00 0.00 56 1027.4
20260505070003 57 360 2.0 10.0 0.00 0.00 0.00 55 1027.4
20260505065403 57 360 3.0 9.0 0.00 0.00 0.00 55 1027.4
20260505064524 56 360 3.0 9.0 0.00 0.00 0.00 55 1027.4
20260505063603 56 360 3.0 11.0 0.00 0.00 0.00 56 1027.4
20260505062703 56 360 4.0 11.0 0.00 0.00 0.00 56 1027.4
20260505061803 56 360 4.0 11.0 0.00 0.00 0.00 57 1027.4
20260505060903 57 360 3.0 11.0 0.00 0.00 0.00 58 1027.4
20260505060003 57 360 2.0 9.0 0.00 0.00 0.00 58 1027.4
20260505055403 57 360 3.0 9.0 0.00 0.00 0.00 59 1027.4
20260505054504 57 360 3.0 13.0 0.00 0.00 0.00 58 1027.4
20260505053603 57 360 3.0 11.0 0.00 0.00 0.00 59 1027.4
20260505052703 58 360 3.0 13.0 0.00 0.00 0.00 58 1027.4
20260505051824 58 360 4.0 15.0 0.00 0.00 0.00 58 1027.4
20260505050924 58 360 5.0 14.0 0.00 0.00 0.00 57 1027.4
20260505040924 63 360 1.0 8.0 0.00 0.00 0.00 43 1027.4
20260505040004 63 360 1.0 9.0 0.00 0.00 0.00 42 1027.4
20260505035403 64 360 0.0 3.0 0.00 0.00 0.00 42 1027.4
20260505034503 64 360 1.0 3.0 0.00 0.00 0.00 42 1027.4
20260505033603 64 360 1.0 6.0 0.00 0.00 0.00 43 1027.4
20260505032703 64 360 2.0 6.0 0.00 0.00 0.00 42 1027.4
20260505031803 65 360 1.0 5.0 0.00 0.00 0.00 39 1027.4
20260505030903 65 360 1.0 6.0 0.00 0.00 0.00 40 1027.4
20260505030004 66 360 1.0 8.0 0.00 0.00 0.00 40 1027.4
20260505025403 66 360 2.0 8.0 0.00 0.00 0.00 39 1027.4
20260505024503 66 360 1.0 4.0 0.00 0.00 0.00 39 1027.4
20260505023603 66 360 1.0 5.0 0.00 0.00 0.00 39 1027.4
20260505022703 67 360 2.0 6.0 0.00 0.00 0.00 36 1027.4
20260505021824 67 360 1.0 5.0 0.00 0.00 0.00 35 1027.4
20260505020903 68 360 2.0 9.0 0.00 0.00 0.00 35 1027.4
20260505020003 69 360 2.0 5.0 0.00 0.00 0.00 34 1027.4
20260505015403 70 360 2.0 5.0 0.00 0.00 0.00 33 1027.4
20260505014503 71 360 2.0 4.0 0.00 0.00 0.00 32 1027.4
20260505013603 73 360 0.0 2.0 0.00 0.00 0.00 29 1027.4
20260505012703 73 360 0.0 1.0 0.00 0.00 0.00 30 1027.4
20260505011803 72 360 0.0 1.0 0.00 0.00 0.00 31 1027.4
20260505010903 72 0 0.0 0.0 0.00 0.00 0.00 30 1027.4
20260505010024 72 109 0.0 1.0 0.00 0.00 0.00 32 1027.4
20260505005403 71 31 0.0 4.0 0.00 0.00 0.00 33 1027.4
20260505004503 70 33 0.0 3.0 0.00 0.00 0.00 30 1027.4
20260505003603 70 360 1.0 4.0 0.00 0.00 0.00 29 1027.4
20260505002703 70 360 1.0 5.0 0.00 0.00 0.00 29 1027.4
20260505001803 70 360 2.0 8.0 0.00 0.00 0.00 31 1027.4
20260505000903 69 360 3.0 6.0 0.00 0.00 0.00 31 1027.4
20260505000003 69 360 4.0 10.0 0.00 0.00 0.00 31 1027.4
20260504235403 69 360 5.0 10.0 0.00 0.00 0.00 31 1027.4
20260504234503 69 360 3.0 10.0 0.00 0.00 0.00 32 1027.4
20260504233603 69 360 3.0 8.0 0.00 0.00 0.00 32 1027.4
20260504232724 69 360 4.0 10.0 0.00 0.00 0.00 33 1027.4
20260504231824 70 10 7.0 12.0 0.00 0.00 0.00 31 1027.4
20260504230903 70 43 7.0 14.0 0.00 0.00 0.00 31 1027.4
20260504230003 71 36 8.0 14.0 0.00 0.00 0.00 31 1027.4
20260504225403 70 41 8.0 18.0 0.00 0.00 0.00 31 1027.4
20260504224503 72 58 11.0 18.0 0.00 0.00 0.00 30 1027.4
20260504223624 73 85 5.0 15.0 0.00 0.00 0.00 28 1027.4
20260504222703 73 69 6.0 16.0 0.00 0.00 0.00 28 1027.4
20260504221803 74 329 3.0 13.0 0.00 0.00 0.00 27 1027.4
20260504220903 73 320 4.0 11.0 0.00 0.00 0.00 29 1027.4
20260504220024 72 360 4.0 13.0 0.00 0.00 0.00 29 1027.4
20260504215403 71 360 6.0 13.0 0.00 0.00 0.00 31 1027.4
20260504214524 70 360 6.0 21.0 0.00 0.00 0.00 29 1027.4
20260504213624 69 360 5.0 21.0 0.00 0.00 0.00 34 1027.4
20260504212703 70 360 7.0 20.0 0.00 0.00 0.00 33 1027.4
20260504211803 71 360 7.0 20.0 0.00 0.00 0.00 31 1027.4
20260504210924 72 360 5.0 11.0 0.00 0.00 0.00 26 1027.4
20260504210004 73 360 6.0 14.0 0.00 0.00 0.00 27 1027.4
20260504205403 74 356 6.0 13.0 0.00 0.00 0.00 27 1027.4
20260504204503 75 334 4.0 10.0 0.00 0.00 0.00 26 1027.4
20260504203603 76 227 1.0 9.0 0.00 0.00 0.00 27 1027.4
20260504202724 75 100 0.0 3.0 0.00 0.00 0.00 26 1027.4
20260504201803 75 102 0.0 2.0 0.00 0.00 0.00 28 1027.4
20260504200904 74 82 1.0 4.0 0.00 0.00 0.00 29 1027.4
20260504200004 74 113 3.0 8.0 0.00 0.00 0.00 26 1027.4
20260504195403 74 116 2.0 8.0 0.00 0.00 0.00 26 1027.4
20260504194503 75 45 1.0 6.0 0.00 0.00 0.00 27 1027.4
20260504193604 75 155 1.0 4.0 0.00 0.00 0.00 27 1027.4
20260504192703 75 333 0.0 3.0 0.00 0.00 0.00 29 1027.4
20260504191824 74 111 2.0 7.0 0.00 0.00 0.00 28 1027.4
20260504190903 75 127 2.0 9.0 0.00 0.00 0.00 28 1027.4
20260504190003 74 131 2.0 9.0 0.00 0.00 0.00 26 1027.4
20260504185403 75 120 4.0 9.0 0.00 0.00 0.00 26 1027.4
20260504184524 75 124 3.0 10.0 0.00 0.00 0.00 27 1027.4
20260504183603 74 117 2.0 8.0 0.00 0.00 0.00 31 1027.4
20260504182703 73 6 4.0 11.0 0.00 0.00 0.00 30 1027.4
20260504181803 73 6 1.0 5.0 0.00 0.00 0.00 29 1027.4
20260504180924 73 133 2.0 10.0 0.00 0.00 0.00 32 1027.4
20260504180003 73 133 4.0 12.0 0.00 0.00 0.00 31 1027.4
20260504175403 73 125 5.0 16.0 0.00 0.00 0.00 32 1027.4
20260504174503 74 141 3.0 11.0 0.00 0.00 0.00 31 1027.4
20260504173624 74 159 2.0 9.0 0.00 0.00 0.00 30 1027.4
20260504172704 73 145 4.0 11.0 0.00 0.00 0.00 31 1027.4
20260504171824 73 139 3.0 14.0 0.00 0.00 0.00 32 1027.4
20260504170925 73 151 3.0 14.0 0.00 0.00 0.00 30 1027.4
20260504150924 67 164 2.0 6.0 0.00 0.00 0.00 41 1027.4
20260504140904 64 163 1.0 5.0 0.00 0.00 0.00 45 1027.4